Hourly Data Report for June 28, 2021

CARIBOU POINT (AUT)
NOVA SCOTIA
Current Station Operator: ECCC - MSC

45°46'00.000" N
62°41'00.000" W
2.40 m
8200774
71415
WBK

Download Data

Hourly Data (June 2021)
Hourly Data Report for June 28, 2021
TIME
LST
Temp Definition
°C
Dew Point Definition
°C
Rel Hum Definition
%
Precip. Amount Definition
mm

Wind Dir Definition
10's deg

Wind Spd Definition
km/h
Visibility Definition
km
Stn Press Definition
kPa
Hmdx Definition


Wind Chill Definition


Weather Definition


00:00 21.9 19.0 83 0.0 23 17   101.27 29   LegendNANA
01:00 22.2 19.3 84 0.0 24 11   101.26 29   LegendNANA
02:00 22.4 19.5 84 0.0 24 14   101.23 30   LegendNANA
03:00 21.2 18.9 87 0.0 22 18   101.20 28   LegendNANA
04:00 21.2 19.0 88 0.0 21 14   101.22 28   LegendNANA
05:00 21.1 19.1 88 0.0 21 11   101.24 28   LegendNANA
06:00 23.2 19.5 80 0.0 23 16   101.28 30   LegendNANA
07:00 24.7 19.9 75 0.0 25 17   101.33 32   LegendNANA
08:00 26.3 20.3 70 0.0 26 17   101.37 34   LegendNANA
09:00 23.6 18.9 75 0.0 29 30   101.42 30   LegendNANA
10:00 21.9 18.0 79 0.0 30 32   101.49 28   LegendNANA
11:00 20.1 17.2 84 0.0 30 22   101.56 26   LegendNANA
12:00 21.8 18.0 79 0.0 29 21   101.57 28   LegendNANA
13:00 21.4 17.9 80 0.0 30 21   101.59 27   LegendNANA
14:00 19.7 17.2 86 0.0 7 6   101.66     LegendNANA
15:00 18.8 17.0 89 0.0 13 11   101.69     LegendNANA
16:00 18.8 17.2 90 0.0 12 9   101.73     LegendNANA
17:00 18.6 16.6 88 0.0 13 13   101.71     LegendNANA
18:00 17.8 16.0 90 0.0 11 11   101.74     LegendNANA
19:00 17.3 15.8 91 0.0 11 11   101.75     LegendNANA
20:00 17.0 15.6 91 0.0 10 11   101.75     LegendNANA
21:00 16.8 15.6 93 0.0 11 9   101.77     LegendNANA
22:00 16.9 15.8 93 0.0 15 8   101.79     LegendNANA
23:00 16.8 15.6 93 0.0 14 8   101.75     LegendNANA

Notes on Data Quality.

Legend

  • E = Estimated
  • M = Missing
  • NA = Not Available*
  • [empty] = Indicates an unobserved value
Date modified: